{"data":{"norad_id":64053,"epoch":"2026-09-21T23:26:48.233760Z","epoch_age_seconds":67826,"freshness":"FRESH","line1":"1 64053U 25103F   26264.97694715  .00002110  00000+0  10232-3 0  9991","line2":"2 64053  97.3725 334.2223 0003300 161.1377 198.9981 15.19576482 74749","mean_motion":15.19576482,"eccentricity":0.00033,"inclination_deg":97.3725,"raan_deg":334.2223,"arg_perigee_deg":161.1377,"mean_anomaly_deg":198.9981,"bstar":0.00010232,"rev_number":7474,"period_min":94.763246013438,"perigee_km":504.8474990316,"apogee_km":509.39176840985,"semimajor_km":6885.2566337207,"source":"CELESTRAK","updated_at":"2026-09-22T09:00:29.523645Z"}}